| time (UTC) | temp F | wind direction | speed knots | gust knots | rain 1hr in | rain 24hr in | rain mn in | humidity % | barometer mb |
| 20260504070159 | 42 | 74 | 1.7 | 1.7 | 0.00 | 0.00 | 0.00 | 80 | 999.7 |
| 20260504060120 | 43 | 143 | 4.3 | 4.3 | 0.00 | 0.00 | 0.00 | 80 | 999.7 |
| 20260504050548 | 44 | 94 | 1.7 | 2.6 | 0.00 | 0.00 | 0.00 | 78 | 1000.0 |
| 20260504045542 | 44 | 72 | 2.6 | 2.6 | 0.00 | 0.00 | 0.00 | 77 | 1000.2 |
| 20260504045037 | 44 | 73 | 1.7 | 2.6 | 0.00 | 0.00 | 0.00 | 76 | 1000.3 |
| 20260504044535 | 44 | 50 | 2.6 | 2.6 | 0.00 | 0.00 | 0.00 | 75 | 1000.1 |
| 20260504044032 | 44 | 78 | 1.7 | 1.7 | 0.00 | 0.00 | 0.00 | 75 | 1000.2 |
| 20260504043529 | 44 | 80 | 1.7 | 1.7 | 0.00 | 0.00 | 0.00 | 74 | 1000.3 |
| 20260504043026 | 44 | 82 | 1.7 | 2.6 | 0.00 | 0.00 | 0.00 | 73 | 1000.3 |
| 20260504042523 | 44 | 67 | 1.7 | 1.7 | 0.00 | 0.00 | 0.00 | 73 | 1000.4 |
| 20260504042020 | 44 | 76 | 0.0 | 1.7 | 0.00 | 0.00 | 0.00 | 75 | 1000.6 |
| 20260504041516 | 44 | 89 | 1.7 | 3.5 | 0.00 | 0.00 | 0.00 | 76 | 1000.5 |
| 20260504041012 | 42 | 67 | 1.7 | 3.5 | 0.00 | 0.00 | 0.00 | 78 | 1000.6 |
| 20260504040510 | 42 | 71 | 0.9 | 3.5 | 0.00 | 0.00 | 0.00 | 78 | 1000.9 |
| 20260504040007 | 42 | 67 | 1.7 | 4.3 | 0.00 | 0.00 | 0.00 | 78 | 1001.0 |
| 20260504035504 | 41 | 24 | 2.6 | 4.3 | 0.00 | 0.00 | 0.00 | 78 | 1000.8 |
| 20260504034959 | 41 | 76 | 2.6 | 3.5 | 0.00 | 0.00 | 0.00 | 78 | 1000.7 |
| 20260504034457 | 41 | 65 | 2.6 | 3.5 | 0.00 | 0.00 | 0.00 | 77 | 1000.8 |
| 20260504033954 | 41 | 67 | 2.6 | 3.5 | 0.00 | 0.00 | 0.00 | 77 | 1000.6 |
| 20260504033451 | 41 | 65 | 3.5 | 3.5 | 0.00 | 0.00 | 0.00 | 77 | 1000.7 |
| 20260504032948 | 40 | 50 | 1.7 | 2.6 | 0.00 | 0.00 | 0.00 | 77 | 1000.8 |
| 20260504032445 | 40 | 40 | 3.5 | 3.5 | 0.00 | 0.00 | 0.00 | 77 | 1000.6 |
| 20260504031942 | 40 | 37 | 1.7 | 3.5 | 0.00 | 0.00 | 0.00 | 77 | 1000.4 |
| 20260504031439 | 40 | 73 | 3.5 | 3.5 | 0.00 | 0.00 | 0.00 | 77 | 1000.4 |
| 20260504030935 | 39 | 85 | 3.5 | 3.5 | 0.00 | 0.00 | 0.00 | 77 | 1000.2 |
| 20260504030433 | 39 | 73 | 3.5 | 4.3 | 0.00 | 0.00 | 0.00 | 76 | 1000.5 |
| 20260504025928 | 40 | 71 | 3.5 | 4.3 | 0.00 | 0.00 | 0.00 | 75 | 1000.5 |
| 20260504025426 | 41 | 43 | 2.6 | 3.5 | 0.00 | 0.00 | 0.00 | 72 | 1000.3 |
| 20260504024923 | 41 | 64 | 1.7 | 3.5 | 0.00 | 0.00 | 0.00 | 72 | 1000.2 |
| 20260504024420 | 40 | 115 | 1.7 | 2.6 | 0.00 | 0.00 | 0.00 | 73 | 1000.2 |
| 20260504023917 | 41 | 86 | 1.7 | 3.5 | 0.00 | 0.00 | 0.00 | 72 | 1000.4 |
| 20260504023413 | 41 | 101 | 0.9 | 2.6 | 0.00 | 0.00 | 0.00 | 72 | 1000.3 |
| 20260504022908 | 40 | 80 | 1.7 | 3.5 | 0.00 | 0.00 | 0.00 | 74 | 1000.2 |
| 20260504022405 | 40 | 83 | 2.6 | 3.5 | 0.00 | 0.00 | 0.00 | 74 | 1000.2 |
| 20260504021902 | 40 | 70 | 3.5 | 3.5 | 0.00 | 0.00 | 0.00 | 73 | 1000.0 |
| 20260504021359 | 42 | 61 | 2.6 | 3.5 | 0.00 | 0.00 | 0.00 | 69 | 1000.3 |
| 20260504020856 | 41 | 60 | 2.6 | 3.5 | 0.00 | 0.00 | 0.00 | 70 | 1000.3 |
| 20260504020353 | 42 | 53 | 2.6 | 3.5 | 0.00 | 0.00 | 0.00 | 69 | 1000.3 |
| 20260504015849 | 42 | 62 | 1.7 | 2.6 | 0.00 | 0.00 | 0.00 | 68 | 1000.3 |
| 20260504015345 | 43 | 60 | 1.7 | 3.5 | 0.00 | 0.00 | 0.00 | 64 | 1000.3 |
| 20260504014841 | 43 | 73 | 3.5 | 3.5 | 0.00 | 0.00 | 0.00 | 66 | 1000.2 |
| 20260504014337 | 43 | 68 | 2.6 | 3.5 | 0.00 | 0.00 | 0.00 | 64 | 1000.1 |
| 20260504013835 | 44 | 71 | 1.7 | 3.5 | 0.00 | 0.00 | 0.00 | 63 | 1000.1 |
| 20260504013333 | 44 | 69 | 2.6 | 3.5 | 0.00 | 0.00 | 0.00 | 61 | 1000.2 |
| 20260504012829 | 45 | 72 | 2.6 | 3.5 | 0.00 | 0.00 | 0.00 | 59 | 1000.1 |
| 20260504012327 | 45 | 44 | 1.7 | 2.6 | 0.00 | 0.00 | 0.00 | 59 | 1000.1 |
| 20260504011824 | 44 | 76 | 1.7 | 1.7 | 0.00 | 0.00 | 0.00 | 61 | 1000.1 |
| 20260504011321 | 45 | 71 | 1.7 | 2.6 | 0.00 | 0.00 | 0.00 | 59 | 1000.2 |
| 20260504010817 | 46 | 69 | 0.0 | 1.7 | 0.00 | 0.00 | 0.00 | 57 | 1000.1 |
| 20260504010312 | 47 | 63 | 0.9 | 1.7 | 0.00 | 0.00 | 0.00 | 55 | 999.9 |
| 20260504005809 | 47 | 17 | 2.6 | 2.6 | 0.00 | 0.00 | 0.00 | 53 | 1000.0 |
| 20260504005306 | 48 | 28 | 1.7 | 2.6 | 0.00 | 0.00 | 0.00 | 53 | 999.9 |
| 20260504004804 | 48 | 2 | 2.6 | 3.5 | 0.00 | 0.00 | 0.00 | 51 | 999.9 |
| 20260504004301 | 48 | 23 | 1.7 | 3.5 | 0.00 | 0.00 | 0.00 | 50 | 1000.0 |
| 20260504003757 | 48 | 46 | 0.0 | 2.6 | 0.00 | 0.00 | 0.00 | 50 | 999.7 |
| 20260504003254 | 48 | 347 | 0.9 | 1.7 | 0.00 | 0.00 | 0.00 | 51 | 999.8 |
| 20260504002751 | 48 | 47 | 0.0 | 2.6 | 0.00 | 0.00 | 0.00 | 50 | 999.7 |
| 20260504002249 | 49 | 0 | 1.7 | 3.5 | 0.00 | 0.00 | 0.00 | 49 | 999.8 |
| 20260504001746 | 49 | 7 | 3.5 | 4.3 | 0.00 | 0.00 | 0.00 | 48 | 999.7 |
| 20260504001243 | 49 | 350 | 2.6 | 3.5 | 0.00 | 0.00 | 0.00 | 48 | 999.6 |
| 20260504000739 | 49 | 9 | 1.7 | 3.5 | 0.00 | 0.00 | 0.00 | 49 | 999.5 |
| 20260504000236 | 49 | 343 | 1.7 | 3.5 | 0.00 | 0.00 | 0.00 | 49 | 999.6 |
| 20260503235735 | 50 | 1 | 1.7 | 3.5 | 0.00 | 0.00 | 0.00 | 48 | 999.2 |
| 20260503235231 | 50 | 354 | 1.7 | 3.5 | 0.00 | 0.00 | 0.00 | 47 | 999.3 |
| 20260503234729 | 50 | 343 | 1.7 | 4.3 | 0.00 | 0.00 | 0.00 | 46 | 999.5 |
| 20260503234227 | 50 | 329 | 3.5 | 5.2 | 0.00 | 0.00 | 0.00 | 45 | 999.4 |
| 20260503233724 | 51 | 17 | 3.5 | 5.2 | 0.00 | 0.00 | 0.00 | 44 | 999.3 |
| 20260503233219 | 51 | 4 | 1.7 | 4.3 | 0.00 | 0.00 | 0.00 | 44 | 999.2 |
| 20260503232716 | 51 | 320 | 4.3 | 8.7 | 0.00 | 0.00 | 0.00 | 42 | 999.1 |
| 20260503232213 | 51 | 357 | 3.5 | 3.5 | 0.00 | 0.00 | 0.00 | 44 | 999.1 |
| 20260503231712 | 52 | 6 | 2.6 | 6.1 | 0.00 | 0.00 | 0.00 | 41 | 999.1 |
| 20260503231208 | 52 | 322 | 4.3 | 6.1 | 0.00 | 0.00 | 0.00 | 41 | 999.0 |
| 20260503230704 | 52 | 315 | 6.1 | 11.3 | 0.00 | 0.00 | 0.00 | 39 | 999.0 |
| 20260503230202 | 52 | 337 | 3.5 | 7.0 | 0.00 | 0.00 | 0.00 | 41 | 998.9 |
| 20260503225659 | 53 | 238 | 3.5 | 6.1 | 0.00 | 0.00 | 0.00 | 40 | 998.7 |
| 20260503225159 | 53 | 315 | 1.7 | 7.0 | 0.00 | 0.00 | 0.00 | 38 | 998.8 |
| 20260503224657 | 53 | 333 | 3.5 | 7.0 | 0.00 | 0.00 | 0.00 | 38 | 998.5 |
| 20260503224154 | 53 | 287 | 2.6 | 8.7 | 0.00 | 0.00 | 0.00 | 37 | 998.6 |
| 20260503223652 | 54 | 346 | 3.5 | 5.2 | 0.00 | 0.00 | 0.00 | 37 | 998.4 |
| 20260503223149 | 55 | 340 | 2.6 | 4.3 | 0.00 | 0.00 | 0.00 | 37 | 998.5 |
| 20260503222646 | 55 | 99 | 0.9 | 3.5 | 0.00 | 0.00 | 0.00 | 36 | 998.6 |
| 20260503222144 | 56 | 341 | 6.1 | 8.7 | 0.00 | 0.00 | 0.00 | 35 | 998.4 |
| 20260503221642 | 55 | 105 | 1.7 | 9.6 | 0.00 | 0.00 | 0.00 | 34 | 998.5 |
| 20260503221139 | 56 | 273 | 3.5 | 11.3 | 0.00 | 0.00 | 0.00 | 34 | 998.3 |
| 20260503220635 | 56 | 353 | 7.8 | 7.8 | 0.00 | 0.00 | 0.00 | 33 | 998.4 |
| 20260503220132 | 56 | 329 | 4.3 | 7.8 | 0.00 | 0.00 | 0.00 | 34 | 998.2 |
| 20260503215630 | 56 | 339 | 8.7 | 10.4 | 0.00 | 0.00 | 0.00 | 33 | 998.4 |
| 20260503215126 | 56 | 325 | 2.6 | 13.9 | 0.00 | 0.00 | 0.00 | 33 | 998.4 |
| 20260503214625 | 56 | 328 | 3.5 | 7.8 | 0.00 | 0.00 | 0.00 | 35 | 998.3 |
| 20260503214120 | 55 | 10 | 4.3 | 4.3 | 0.00 | 0.00 | 0.00 | 34 | 998.4 |
| 20260503213615 | 55 | 268 | 2.6 | 4.3 | 0.00 | 0.00 | 0.00 | 33 | 998.4 |
| 20260503213110 | 54 | 324 | 6.1 | 12.2 | 0.00 | 0.00 | 0.00 | 34 | 998.5 |
| 20260503212608 | 56 | 316 | 0.9 | 17.4 | 0.00 | 0.00 | 0.00 | 32 | 998.4 |
| 20260503212105 | 56 | 252 | 3.5 | 8.7 | 0.00 | 0.00 | 0.00 | 32 | 998.3 |
| 20260503211603 | 57 | 266 | 3.5 | 9.6 | 0.00 | 0.00 | 0.00 | 34 | 998.4 |
| 20260503211058 | 56 | 283 | 7.8 | 13.0 | 0.00 | 0.00 | 0.00 | 33 | 998.6 |
| 20260503210555 | 56 | 283 | 0.0 | 5.2 | 0.00 | 0.00 | 0.00 | 34 | 998.5 |
| 20260503210050 | 56 | 11 | 4.3 | 7.8 | 0.00 | 0.00 | 0.00 | 33 | 998.4 |
| 20260503205547 | 56 | 321 | 3.5 | 7.0 | 0.00 | 0.00 | 0.00 | 33 | 998.5 |
| 20260503205043 | 56 | 232 | 5.2 | 11.3 | 0.00 | 0.00 | 0.00 | 34 | 998.3 |
| 20260503204540 | 56 | 254 | 2.6 | 7.0 | 0.00 | 0.00 | 0.00 | 37 | 998.7 |
| 20260503204037 | 56 | 312 | 7.0 | 9.6 | 0.00 | 0.00 | 0.00 | 34 | 998.6 |
| 20260503203534 | 56 | 234 | 5.2 | 8.7 | 0.00 | 0.00 | 0.00 | 34 | 998.8 |
| 20260503203031 | 56 | 290 | 3.5 | 7.8 | 0.00 | 0.00 | 0.00 | 32 | 998.8 |
| 20260503202529 | 57 | 328 | 7.8 | 10.4 | 0.00 | 0.00 | 0.00 | 33 | 998.5 |
| 20260503202027 | 55 | 352 | 5.2 | 13.0 | 0.00 | 0.00 | 0.00 | 37 | 998.7 |
| 20260503201520 | 56 | 224 | 8.7 | 12.2 | 0.00 | 0.00 | 0.00 | 33 | 998.7 |
| 20260503201017 | 55 | 303 | 3.5 | 13.9 | 0.00 | 0.00 | 0.00 | 39 | 998.6 |
| 20260503200512 | 56 | 340 | 3.5 | 10.4 | 0.00 | 0.00 | 0.00 | 35 | 998.7 |
| 20260503200009 | 55 | 274 | 4.3 | 11.3 | 0.00 | 0.00 | 0.00 | 38 | 998.8 |
| 20260503195506 | 56 | 331 | 7.0 | 8.7 | 0.00 | 0.00 | 0.00 | 37 | 999.0 |
| 20260503194957 | 55 | 331 | 3.5 | 7.8 | 0.00 | 0.00 | 0.00 | 38 | 998.8 |
| 20260503194455 | 56 | 322 | 4.3 | 7.8 | 0.00 | 0.00 | 0.00 | 37 | 999.1 |
| 20260503193955 | 55 | 328 | 3.5 | 12.2 | 0.00 | 0.00 | 0.00 | 38 | 999.2 |
| 20260503193451 | 55 | 313 | 3.5 | 10.4 | 0.00 | 0.00 | 0.00 | 40 | 999.1 |
| 20260503192946 | 55 | 343 | 2.6 | 7.0 | 0.00 | 0.00 | 0.00 | 41 | 999.2 |
| 20260503192443 | 55 | 11 | 1.7 | 13.0 | 0.00 | 0.00 | 0.00 | 41 | 999.5 |
| 20260503191938 | 54 | 213 | 8.7 | 11.3 | 0.00 | 0.00 | 0.00 | 39 | 999.4 |
| 20260503191436 | 54 | 352 | 4.3 | 7.8 | 0.00 | 0.00 | 0.00 | 42 | 999.5 |
| 20260503190932 | 52 | 246 | 0.9 | 11.3 | 0.00 | 0.00 | 0.00 | 43 | 999.5 |
| 20260503190430 | 51 | 317 | 2.6 | 7.0 | 0.00 | 0.00 | 0.00 | 41 | 999.4 |
| 20260503185927 | 52 | 330 | 3.5 | 11.3 | 0.00 | 0.00 | 0.00 | 43 | 999.7 |
| 20260503185423 | 51 | 253 | 2.6 | 7.8 | 0.00 | 0.00 | 0.00 | 43 | 999.7 |
| 20260503184922 | 52 | 325 | 5.2 | 7.8 | 0.00 | 0.00 | 0.00 | 41 | 999.7 |
| 20260503184419 | 53 | 10 | 3.5 | 6.1 | 0.00 | 0.00 | 0.00 | 39 | 1000.0 |
| 20260503183916 | 53 | 306 | 3.5 | 7.8 | 0.00 | 0.00 | 0.00 | 43 | 999.9 |
| 20260503183412 | 51 | 341 | 5.2 | 7.8 | 0.00 | 0.00 | 0.00 | 41 | 1000.1 |
| 20260503182909 | 52 | 356 | 7.8 | 13.0 | 0.00 | 0.00 | 0.00 | 40 | 1000.0 |
| 20260503182409 | 53 | 303 | 3.5 | 7.8 | 0.00 | 0.00 | 0.00 | 45 | 1000.2 |
| 20260503181900 | 51 | 252 | 7.0 | 10.4 | 0.00 | 0.00 | 0.00 | 42 | 1000.2 |
| 20260503181357 | 50 | 220 | 3.5 | 10.4 | 0.00 | 0.00 | 0.00 | 44 | 1000.0 |
| 20260503180853 | 51 | 262 | 4.3 | 7.8 | 0.00 | 0.00 | 0.00 | 44 | 999.9 |
| 20260503180351 | 50 | 354 | 5.2 | 12.2 | 0.00 | 0.00 | 0.00 | 42 | 1000.0 |
| 20260503175847 | 50 | 0 | 2.6 | 11.3 | 0.00 | 0.00 | 0.00 | 46 | 1000.2 |
| 20260503175345 | 52 | 328 | 4.3 | 8.7 | 0.00 | 0.00 | 0.00 | 48 | 1000.1 |
| 20260503174840 | 51 | 265 | 5.2 | 8.7 | 0.00 | 0.00 | 0.00 | 46 | 1000.3 |
| 20260503174339 | 50 | 325 | 4.3 | 7.8 | 0.00 | 0.00 | 0.00 | 46 | 1000.4 |
| 20260503173833 | 50 | 338 | 2.6 | 4.3 | 0.00 | 0.00 | 0.00 | 47 | 1000.3 |
| 20260503173330 | 50 | 343 | 3.5 | 5.2 | 0.00 | 0.00 | 0.00 | 50 | 1000.3 |
| 20260503172827 | 49 | 201 | 3.5 | 9.6 | 0.00 | 0.00 | 0.00 | 48 | 1000.6 |
| 20260503172325 | 49 | 319 | 2.6 | 5.2 | 0.00 | 0.00 | 0.00 | 49 | 1000.6 |
| 20260503171820 | 48 | 258 | 3.5 | 7.0 | 0.00 | 0.00 | 0.00 | 52 | 1000.4 |
| 20260503171318 | 48 | 335 | 7.8 | 9.6 | 0.00 | 0.00 | 0.00 | 50 | 1000.5 |
| 20260503170815 | 49 | 207 | 3.5 | 5.2 | 0.00 | 0.00 | 0.00 | 52 | 1000.6 |
| 20260503170311 | 48 | 339 | 6.1 | 7.8 | 0.00 | 0.00 | 0.00 | 50 | 1000.7 |
| 20260503150703 | 45 | 29 | 2.6 | 8.7 | 0.00 | 0.00 | 0.00 | 62 | 1001.1 |
| 20260503150200 | 45 | 319 | 1.7 | 7.0 | 0.00 | 0.00 | 0.00 | 62 | 1001.1 |
| 20260503140124 | 48 | 209 | 2.6 | 9.6 | 0.00 | 0.00 | 0.00 | 58 | 1001.1 |
| 20260503131053 | 44 | 92 | 0.0 | 5.2 | 0.00 | 0.00 | 0.00 | 71 | 1001.7 |
| 20260503130550 | 44 | 331 | 2.6 | 4.3 | 0.00 | 0.00 | 0.00 | 71 | 1001.5 |
| 20260503110441 | 38 | 330 | 1.7 | 3.5 | 0.00 | 0.00 | 0.00 | 82 | 1001.3 |
| 20260503090333 | 37 | 47 | 1.7 | 2.6 | 0.00 | 0.00 | 0.00 | 84 | 1000.6 |
| 20260503081300 | 37 | 16 | 1.7 | 1.7 | 0.00 | 0.00 | 0.00 | 85 | 1001.1 |
| 20260503080755 | 37 | 27 | 0.9 | 1.7 | 0.00 | 0.00 | 0.00 | 85 | 1001.1 |
| 20260503080253 | 36 | 356 | 1.7 | 2.6 | 0.00 | 0.00 | 0.00 | 85 | 1001.0 |
| 20260503072729 | 36 | 41 | 1.7 | 1.7 | 0.00 | 0.00 | 0.00 | 84 | 1001.4 |
| 20260503072226 | 36 | 38 | 1.7 | 1.7 | 0.00 | 0.00 | 0.00 | 84 | 1001.4 |
| 20260503071723 | 35 | 18 | 0.9 | 1.7 | 0.00 | 0.00 | 0.00 | 84 | 1001.3 |
| 20260503071220 | 35 | 41 | 0.9 | 1.7 | 0.00 | 0.00 | 0.00 | 84 | 1001.3 |
| 20260503070716 | 35 | 42 | 1.7 | 2.6 | 0.00 | 0.00 | 0.00 | 84 | 1001.3 |